Year,Month,Day,Hour,Minute,Value (Times are PST for temperature in C)
2018,08,22,00,00,15.40
2018,08,22,00,01,15.40
2018,08,22,00,02,15.50
2018,08,22,00,03,15.50
2018,08,22,00,04,15.50
2018,08,22,00,05,15.60
2018,08,22,00,06,15.60
2018,08,22,00,07,15.60
2018,08,22,00,08,15.70
2018,08,22,00,09,15.80
2018,08,22,00,10,15.80
2018,08,22,00,11,15.80
2018,08,22,00,12,15.90
2018,08,22,00,13,15.90
2018,08,22,00,14,16.00
2018,08,22,00,15,16.00
2018,08,22,00,16,16.00
2018,08,22,00,17,16.10
2018,08,22,00,18,16.10
2018,08,22,00,19,16.10
2018,08,22,00,20,16.10
2018,08,22,00,21,16.10
2018,08,22,00,22,16.10
2018,08,22,00,23,16.10
2018,08,22,00,24,16.10
2018,08,22,00,25,16.10
2018,08,22,00,26,16.10
2018,08,22,00,27,16.10
2018,08,22,00,28,16.10
2018,08,22,00,29,16.10
2018,08,22,00,30,16.00
2018,08,22,00,31,16.00
2018,08,22,00,32,16.00
2018,08,22,00,33,16.00
2018,08,22,00,34,16.00
2018,08,22,00,35,15.90
2018,08,22,00,36,15.90
2018,08,22,00,37,15.90
2018,08,22,00,38,15.90
2018,08,22,00,39,15.80
2018,08,22,00,40,15.80
2018,08,22,00,41,15.80
2018,08,22,00,42,15.70
2018,08,22,00,43,15.70
2018,08,22,00,44,15.70
2018,08,22,00,45,15.60
2018,08,22,00,46,15.60
2018,08,22,00,47,15.60
2018,08,22,00,48,15.60
2018,08,22,00,49,15.50
2018,08,22,00,50,15.50
2018,08,22,00,51,15.40
2018,08,22,00,52,15.40
2018,08,22,00,53,15.40
2018,08,22,00,54,15.40
2018,08,22,00,55,15.40
2018,08,22,00,56,15.30
2018,08,22,00,57,15.30
2018,08,22,00,58,15.30
2018,08,22,00,59,15.20
2018,08,22,01,00,15.20
2018,08,22,01,01,15.20
2018,08,22,01,02,15.20
2018,08,22,01,03,15.10
2018,08,22,01,04,15.10
2018,08,22,01,05,15.10
2018,08,22,01,06,15.10
2018,08,22,01,07,15.00
2018,08,22,01,08,15.00
2018,08,22,01,09,15.00
2018,08,22,01,10,14.90
2018,08,22,01,11,14.90
2018,08,22,01,12,14.90
2018,08,22,01,13,14.90
2018,08,22,01,14,14.90
2018,08,22,01,15,14.80
2018,08,22,01,16,14.80
2018,08,22,01,17,14.80
2018,08,22,01,18,14.80
2018,08,22,01,19,14.80
2018,08,22,01,20,14.70
2018,08,22,01,21,14.70
2018,08,22,01,22,14.70
2018,08,22,01,23,14.70
2018,08,22,01,24,14.70
2018,08,22,01,25,14.70
2018,08,22,01,26,14.70
2018,08,22,01,27,14.60
2018,08,22,01,28,14.60
2018,08,22,01,29,14.60
2018,08,22,01,30,14.60
2018,08,22,01,31,14.60
2018,08,22,01,32,14.50
2018,08,22,01,33,14.50
2018,08,22,01,34,14.50
2018,08,22,01,35,14.50
2018,08,22,01,36,14.40
2018,08,22,01,37,14.40
2018,08,22,01,38,14.40
2018,08,22,01,39,14.40
2018,08,22,01,40,14.40
2018,08,22,01,41,14.40
2018,08,22,01,42,14.30
2018,08,22,01,43,14.30
2018,08,22,01,44,14.30
2018,08,22,01,45,14.30
2018,08,22,01,46,14.30
2018,08,22,01,47,14.30
2018,08,22,01,48,14.20
2018,08,22,01,49,14.20
2018,08,22,01,50,14.20
2018,08,22,01,51,14.20
2018,08,22,01,52,14.20
2018,08,22,01,53,14.20
2018,08,22,01,54,14.10
2018,08,22,01,55,14.10
2018,08,22,01,56,14.10
2018,08,22,01,57,14.10
2018,08,22,01,58,14.10
2018,08,22,01,59,14.10
2018,08,22,02,00,14.10
2018,08,22,02,01,14.10
2018,08,22,02,02,14.10
2018,08,22,02,03,14.10
2018,08,22,02,04,14.10
2018,08,22,02,05,14.10
2018,08,22,02,06,14.10
2018,08,22,02,07,14.10
2018,08,22,02,08,14.10
2018,08,22,02,09,14.00
2018,08,22,02,10,14.00
2018,08,22,02,11,14.00
2018,08,22,02,12,14.00
2018,08,22,02,13,14.00
2018,08,22,02,14,14.00
2018,08,22,02,15,13.90
2018,08,22,02,16,13.90
2018,08,22,02,17,13.90
2018,08,22,02,18,13.90
2018,08,22,02,19,13.90
2018,08,22,02,20,13.90
2018,08,22,02,21,13.90
2018,08,22,02,22,13.80
2018,08,22,02,23,13.80
2018,08,22,02,24,13.80
2018,08,22,02,25,13.80
2018,08,22,02,26,13.80
2018,08,22,02,27,13.80
2018,08,22,02,28,13.70
2018,08,22,02,29,13.70
2018,08,22,02,30,13.70
2018,08,22,02,31,13.70
2018,08,22,02,32,13.70
2018,08,22,02,33,13.60
2018,08,22,02,34,13.60
2018,08,22,02,35,13.60
2018,08,22,02,36,13.60
2018,08,22,02,37,13.60
2018,08,22,02,38,13.60
2018,08,22,02,39,13.60
2018,08,22,02,40,13.60
2018,08,22,02,41,13.50
2018,08,22,02,42,13.50
2018,08,22,02,43,13.50
2018,08,22,02,44,13.50
2018,08,22,02,45,13.40
2018,08,22,02,46,13.40
2018,08,22,02,47,13.40
2018,08,22,02,48,13.40
2018,08,22,02,49,13.40
2018,08,22,02,50,13.40
2018,08,22,02,51,13.40
2018,08,22,02,52,13.40
2018,08,22,02,53,13.40
2018,08,22,02,54,13.30
2018,08,22,02,55,13.30
2018,08,22,02,56,13.30
2018,08,22,02,57,13.30
2018,08,22,02,58,13.30
2018,08,22,02,59,13.30
2018,08,22,03,00,13.30
2018,08,22,03,01,13.30
2018,08,22,03,02,13.20
2018,08,22,03,03,13.20
2018,08,22,03,04,13.20
2018,08,22,03,05,13.20
2018,08,22,03,06,13.20
2018,08,22,03,07,13.20
2018,08,22,03,08,13.20
2018,08,22,03,09,13.20
2018,08,22,03,10,13.10
2018,08,22,03,11,13.10
2018,08,22,03,12,13.10
2018,08,22,03,13,13.10
2018,08,22,03,14,13.10
2018,08,22,03,15,13.10
2018,08,22,03,16,13.00
2018,08,22,03,17,13.00
2018,08,22,03,18,13.00
2018,08,22,03,19,13.00
2018,08,22,03,20,12.90
2018,08,22,03,21,12.90
2018,08,22,03,22,12.90
2018,08,22,03,23,12.90
2018,08,22,03,24,12.90
2018,08,22,03,25,12.90
2018,08,22,03,26,12.90
2018,08,22,03,27,12.90
2018,08,22,03,28,12.90
2018,08,22,03,29,12.90
2018,08,22,03,30,12.80
2018,08,22,03,31,12.80
2018,08,22,03,32,12.80
2018,08,22,03,33,12.80
2018,08,22,03,34,12.80
2018,08,22,03,35,12.80
2018,08,22,03,36,12.80
2018,08,22,03,37,12.80
2018,08,22,03,38,12.70
2018,08,22,03,39,12.70
2018,08,22,03,40,12.70
2018,08,22,03,41,12.70
2018,08,22,03,42,12.70
2018,08,22,03,43,12.70
2018,08,22,03,44,12.70
2018,08,22,03,45,12.70
2018,08,22,03,46,12.70
2018,08,22,03,47,12.70
2018,08,22,03,48,12.70
2018,08,22,03,49,12.70
2018,08,22,03,50,12.70
2018,08,22,03,51,12.70
2018,08,22,03,52,12.70
2018,08,22,03,53,12.70
2018,08,22,03,54,12.70
2018,08,22,03,55,12.70
2018,08,22,03,56,12.70
2018,08,22,03,57,12.70
2018,08,22,03,58,12.60
2018,08,22,03,59,12.60
2018,08,22,04,00,12.60
2018,08,22,04,01,12.60
2018,08,22,04,02,12.60
2018,08,22,04,03,12.60
2018,08,22,04,04,12.60
2018,08,22,04,05,12.60
2018,08,22,04,06,12.60
2018,08,22,04,07,12.60
2018,08,22,04,08,12.60
2018,08,22,04,09,12.60
2018,08,22,04,10,12.60
2018,08,22,04,11,12.60
2018,08,22,04,12,12.60
2018,08,22,04,13,12.60
2018,08,22,04,14,12.50
2018,08,22,04,15,12.60
2018,08,22,04,16,12.50
2018,08,22,04,17,12.60
2018,08,22,04,18,12.60
2018,08,22,04,19,12.50
2018,08,22,04,20,12.50
2018,08,22,04,21,12.50
2018,08,22,04,22,12.50
2018,08,22,04,23,12.50
2018,08,22,04,24,12.50
2018,08,22,04,25,12.50
2018,08,22,04,26,12.50
2018,08,22,04,27,12.50
2018,08,22,04,28,12.50
2018,08,22,04,29,12.50
2018,08,22,04,30,12.40
2018,08,22,04,31,12.40
2018,08,22,04,32,12.40
2018,08,22,04,33,12.40
2018,08,22,04,34,12.40
2018,08,22,04,35,12.40
2018,08,22,04,36,12.40
2018,08,22,04,37,12.40
2018,08,22,04,38,12.40
2018,08,22,04,39,12.50
2018,08,22,04,40,12.50
2018,08,22,04,41,12.50
2018,08,22,04,42,12.50
2018,08,22,04,43,12.50
2018,08,22,04,44,12.50
2018,08,22,04,45,12.60
2018,08,22,04,46,12.60
2018,08,22,04,47,12.60
2018,08,22,04,48,12.60
2018,08,22,04,49,12.60
2018,08,22,04,50,12.70
2018,08,22,04,51,12.70
2018,08,22,04,52,12.70
2018,08,22,04,53,12.80
2018,08,22,04,54,12.80
2018,08,22,04,55,12.80
2018,08,22,04,56,12.80
2018,08,22,04,57,12.90
2018,08,22,04,58,12.90
2018,08,22,04,59,12.90
2018,08,22,05,00,13.00
2018,08,22,05,01,13.00
2018,08,22,05,02,13.00
2018,08,22,05,03,13.10
2018,08,22,05,04,13.10
2018,08,22,05,05,13.10
2018,08,22,05,06,13.10
2018,08,22,05,07,13.20
2018,08,22,05,08,13.20
2018,08,22,05,09,13.20
2018,08,22,05,10,13.20
2018,08,22,05,11,13.20
2018,08,22,05,12,13.20
2018,08,22,05,13,13.20
2018,08,22,05,14,13.20
2018,08,22,05,15,13.20
2018,08,22,05,16,13.20
2018,08,22,05,17,13.20
2018,08,22,05,18,13.20
2018,08,22,05,19,13.20
2018,08,22,05,20,13.20
2018,08,22,05,21,13.20
2018,08,22,05,22,13.20
2018,08,22,05,23,13.20
2018,08,22,05,24,13.20
2018,08,22,05,25,13.20
2018,08,22,05,26,13.20
2018,08,22,05,27,13.20
2018,08,22,05,28,13.10
2018,08,22,05,29,13.10
2018,08,22,05,30,13.10
2018,08,22,05,31,13.10
2018,08,22,05,32,13.10
2018,08,22,05,33,13.00
2018,08,22,05,34,13.00
2018,08,22,05,35,13.00
2018,08,22,05,36,13.00
2018,08,22,05,37,12.90
2018,08,22,05,38,12.90
2018,08,22,05,39,12.90
2018,08,22,05,40,12.90
2018,08,22,05,41,12.90
2018,08,22,05,42,12.80
2018,08,22,05,43,12.80
2018,08,22,05,44,12.80
2018,08,22,05,45,12.80
2018,08,22,05,46,12.80
2018,08,22,05,47,12.80
2018,08,22,05,48,12.80
2018,08,22,05,49,12.80
2018,08,22,05,50,12.80
2018,08,22,05,51,12.70
2018,08,22,05,52,12.70
2018,08,22,05,53,12.70
2018,08,22,05,54,12.70
2018,08,22,05,55,12.70
2018,08,22,05,56,12.70
2018,08,22,05,57,12.70
2018,08,22,05,58,12.70
2018,08,22,05,59,12.70
2018,08,22,06,00,12.70
2018,08,22,06,01,12.70
2018,08,22,06,02,12.70
2018,08,22,06,03,12.60
2018,08,22,06,04,12.60
2018,08,22,06,05,12.60
2018,08,22,06,06,12.60
2018,08,22,06,07,12.60
2018,08,22,06,08,12.60
2018,08,22,06,09,12.60
2018,08,22,06,10,12.60
2018,08,22,06,11,12.50
2018,08,22,06,12,12.50
2018,08,22,06,13,12.50
2018,08,22,06,14,12.50
2018,08,22,06,15,12.50
2018,08,22,06,16,12.50
2018,08,22,06,17,12.50
2018,08,22,06,18,12.40
2018,08,22,06,19,12.40
2018,08,22,06,20,12.40
2018,08,22,06,21,12.40
2018,08,22,06,22,12.40
2018,08,22,06,23,12.40
2018,08,22,06,24,12.40
2018,08,22,06,25,12.30
2018,08,22,06,26,12.30
2018,08,22,06,27,12.30
2018,08,22,06,28,12.30
2018,08,22,06,29,12.30
2018,08,22,06,30,12.30
2018,08,22,06,31,12.30
2018,08,22,06,32,12.20
2018,08,22,06,33,12.20
2018,08,22,06,34,12.20
2018,08,22,06,35,12.20
2018,08,22,06,36,12.20
2018,08,22,06,37,12.20
2018,08,22,06,38,12.20
2018,08,22,06,39,12.20
2018,08,22,06,40,12.10
2018,08,22,06,41,12.10
2018,08,22,06,42,12.10
2018,08,22,06,43,12.10
2018,08,22,06,44,12.10
2018,08,22,06,45,12.10
2018,08,22,06,46,12.10
2018,08,22,06,47,12.10
2018,08,22,06,48,12.10
2018,08,22,06,49,12.10
2018,08,22,06,50,12.10
2018,08,22,06,51,12.00
2018,08,22,06,52,12.00
2018,08,22,06,53,12.00
2018,08,22,06,54,12.00
2018,08,22,06,55,12.00
2018,08,22,06,56,12.00
2018,08,22,06,57,11.90
2018,08,22,06,58,11.90
2018,08,22,06,59,11.90
2018,08,22,07,00,11.90
2018,08,22,07,01,11.90
2018,08,22,07,02,11.90
2018,08,22,07,03,12.00
2018,08,22,07,04,12.00
2018,08,22,07,05,12.00
2018,08,22,07,06,12.00
2018,08,22,07,07,12.00
2018,08,22,07,08,12.00
2018,08,22,07,09,12.00
2018,08,22,07,10,12.00
2018,08,22,07,11,12.10
2018,08,22,07,12,12.10
2018,08,22,07,13,12.10
2018,08,22,07,14,12.10
2018,08,22,07,15,12.10
2018,08,22,07,16,12.10
2018,08,22,07,17,12.10
2018,08,22,07,18,12.10
2018,08,22,07,19,12.10
2018,08,22,07,20,12.10
2018,08,22,07,21,12.10
2018,08,22,07,22,12.10
2018,08,22,07,23,12.10
2018,08,22,07,24,12.10
2018,08,22,07,25,12.10
2018,08,22,07,26,12.10
2018,08,22,07,27,12.20
2018,08,22,07,28,12.20
2018,08,22,07,29,12.20
2018,08,22,07,30,12.20
2018,08,22,07,31,12.20
2018,08,22,07,32,12.20
2018,08,22,07,33,12.20
2018,08,22,07,34,12.20
2018,08,22,07,35,12.20
2018,08,22,07,36,12.20
2018,08,22,07,37,12.30
2018,08,22,07,38,12.30
2018,08,22,07,39,12.30
2018,08,22,07,40,12.30
2018,08,22,07,41,12.40
2018,08,22,07,42,12.40
2018,08,22,07,43,12.40
2018,08,22,07,44,12.40
2018,08,22,07,45,12.50
2018,08,22,07,46,12.50
2018,08,22,07,47,12.50
2018,08,22,07,48,12.60
2018,08,22,07,49,12.60
2018,08,22,07,50,12.60
2018,08,22,07,51,12.70
2018,08,22,07,52,12.70
2018,08,22,07,53,12.70
2018,08,22,07,54,12.80
2018,08,22,07,55,12.80
2018,08,22,07,56,12.80
2018,08,22,07,57,12.90
2018,08,22,07,58,12.90
2018,08,22,07,59,12.90
2018,08,22,08,00,13.00
2018,08,22,08,01,13.00
2018,08,22,08,02,13.10
2018,08,22,08,03,13.10
2018,08,22,08,04,13.20
2018,08,22,08,05,13.20
2018,08,22,08,06,13.20
2018,08,22,08,07,13.30
2018,08,22,08,08,13.30
2018,08,22,08,09,13.40
2018,08,22,08,10,13.40
2018,08,22,08,11,13.50
2018,08,22,08,12,13.60
2018,08,22,08,13,13.60
2018,08,22,08,14,13.70
2018,08,22,08,15,13.70
2018,08,22,08,16,13.80
2018,08,22,08,17,13.90
2018,08,22,08,18,13.90
2018,08,22,08,19,14.00
2018,08,22,08,20,14.00
2018,08,22,08,21,14.10
2018,08,22,08,22,14.10
2018,08,22,08,23,14.20
2018,08,22,08,24,14.30
2018,08,22,08,25,14.30
2018,08,22,08,26,14.40
2018,08,22,08,27,14.40
2018,08,22,08,28,14.50
2018,08,22,08,29,14.60
2018,08,22,08,30,14.60
2018,08,22,08,31,14.70
2018,08,22,08,32,14.80
2018,08,22,08,33,14.90
2018,08,22,08,34,14.90
2018,08,22,08,35,15.00
2018,08,22,08,36,15.10
2018,08,22,08,37,15.20
2018,08,22,08,38,15.20
2018,08,22,08,39,15.30
2018,08,22,08,40,15.40
2018,08,22,08,41,15.50
2018,08,22,08,42,15.50
2018,08,22,08,43,15.60
2018,08,22,08,44,15.70
2018,08,22,08,45,15.80
2018,08,22,08,46,15.80
2018,08,22,08,47,15.90
2018,08,22,08,48,16.00
2018,08,22,08,49,16.10
2018,08,22,08,50,16.20
2018,08,22,08,51,16.30
2018,08,22,08,52,16.40
2018,08,22,08,53,16.50
2018,08,22,08,54,16.60
2018,08,22,08,55,16.70
2018,08,22,08,56,16.80
2018,08,22,08,57,16.90
2018,08,22,08,58,17.00
2018,08,22,08,59,17.10
2018,08,22,09,00,17.20
2018,08,22,09,01,17.40
2018,08,22,09,02,17.50
2018,08,22,09,03,17.60
2018,08,22,09,04,17.70
2018,08,22,09,05,17.80
2018,08,22,09,06,17.90
2018,08,22,09,07,18.00
2018,08,22,09,08,18.10
2018,08,22,09,09,18.20
2018,08,22,09,10,18.30
2018,08,22,09,11,18.40
2018,08,22,09,12,18.50
2018,08,22,09,13,18.60
2018,08,22,09,14,18.70
2018,08,22,09,15,18.80
2018,08,22,09,16,18.90
2018,08,22,09,17,19.10
2018,08,22,09,18,19.20
2018,08,22,09,19,19.30
2018,08,22,09,20,19.40
2018,08,22,09,21,19.50
2018,08,22,09,22,19.60
2018,08,22,09,23,19.70
2018,08,22,09,24,19.70
2018,08,22,09,25,19.80
2018,08,22,09,26,19.90
2018,08,22,09,27,20.00
2018,08,22,09,28,20.10
2018,08,22,09,29,20.20
2018,08,22,09,30,20.30
2018,08,22,09,31,20.30
2018,08,22,09,32,20.40
2018,08,22,09,33,20.50
2018,08,22,09,34,20.50
2018,08,22,09,35,20.60
2018,08,22,09,36,20.60
2018,08,22,09,37,20.70
2018,08,22,09,38,20.70
2018,08,22,09,39,20.80
2018,08,22,09,40,20.80
2018,08,22,09,41,20.80
2018,08,22,09,42,20.90
2018,08,22,09,43,20.90
2018,08,22,09,44,20.90
2018,08,22,09,45,21.00
2018,08,22,09,46,21.00
2018,08,22,09,47,21.10
2018,08,22,09,48,21.10
2018,08,22,09,49,21.20
2018,08,22,09,50,21.20
2018,08,22,09,51,21.30
2018,08,22,09,52,21.30
2018,08,22,09,53,21.30
2018,08,22,09,54,21.40
2018,08,22,09,55,21.50
2018,08,22,09,56,21.50
2018,08,22,09,57,21.60
2018,08,22,09,58,21.60
2018,08,22,09,59,21.70
2018,08,22,10,00,21.70
2018,08,22,10,01,21.80
2018,08,22,10,02,21.80
2018,08,22,10,03,21.90
2018,08,22,10,04,22.00
2018,08,22,10,05,22.00
2018,08,22,10,06,22.10
2018,08,22,10,07,22.10
2018,08,22,10,08,22.20
2018,08,22,10,09,22.30
2018,08,22,10,10,22.30
2018,08,22,10,11,22.30
2018,08,22,10,12,22.40
2018,08,22,10,13,22.40
2018,08,22,10,14,22.50
2018,08,22,10,15,22.50
2018,08,22,10,16,22.40
2018,08,22,10,17,22.40
2018,08,22,10,18,22.50
2018,08,22,10,19,22.50
2018,08,22,10,20,22.50
2018,08,22,10,21,22.50
2018,08,22,10,22,22.60
2018,08,22,10,23,22.60
2018,08,22,10,24,22.70
2018,08,22,10,25,22.70
2018,08,22,10,26,22.70
2018,08,22,10,27,22.80
2018,08,22,10,28,22.80
2018,08,22,10,29,22.80
2018,08,22,10,30,22.90
2018,08,22,10,31,22.90
2018,08,22,10,32,23.00
2018,08,22,10,33,23.10
2018,08,22,10,34,23.10
2018,08,22,10,35,23.20
2018,08,22,10,36,23.30
2018,08,22,10,37,23.40
2018,08,22,10,38,23.40
2018,08,22,10,39,23.40
2018,08,22,10,40,23.50
2018,08,22,10,41,23.60
2018,08,22,10,42,23.60
2018,08,22,10,43,23.60
2018,08,22,10,44,23.60
2018,08,22,10,45,23.60
2018,08,22,10,46,23.60
2018,08,22,10,47,23.60
2018,08,22,10,48,23.60
2018,08,22,10,49,23.70
2018,08,22,10,50,23.70
2018,08,22,10,51,23.80
2018,08,22,10,52,23.80
2018,08,22,10,53,23.90
2018,08,22,10,54,23.90
2018,08,22,10,55,24.00
2018,08,22,10,56,24.10
2018,08,22,10,57,24.10
2018,08,22,10,58,24.20
2018,08,22,10,59,24.30
2018,08,22,11,00,24.30
2018,08,22,11,01,24.40
2018,08,22,11,02,24.40
2018,08,22,11,03,24.50
2018,08,22,11,04,24.60
2018,08,22,11,05,24.60
2018,08,22,11,06,24.70
2018,08,22,11,07,24.70
2018,08,22,11,08,24.80
2018,08,22,11,09,24.80
2018,08,22,11,10,24.90
2018,08,22,11,11,24.90
2018,08,22,11,12,25.00
2018,08,22,11,13,25.00
2018,08,22,11,14,25.10
2018,08,22,11,15,25.10
2018,08,22,11,16,25.20
2018,08,22,11,17,25.20
2018,08,22,11,18,25.30
2018,08,22,11,19,25.30
2018,08,22,11,20,25.30
2018,08,22,11,21,25.40
2018,08,22,11,22,25.50
2018,08,22,11,23,25.50
2018,08,22,11,24,25.60
2018,08,22,11,25,25.60
2018,08,22,11,26,25.70
2018,08,22,11,27,25.70
2018,08,22,11,28,25.80
2018,08,22,11,29,25.80
2018,08,22,11,30,25.80
2018,08,22,11,31,25.80
2018,08,22,11,32,25.80
2018,08,22,11,33,25.80
2018,08,22,11,34,25.80
2018,08,22,11,35,25.80
2018,08,22,11,36,25.80
2018,08,22,11,37,25.70
2018,08,22,11,38,25.70
2018,08,22,11,39,25.60
2018,08,22,11,40,25.60
2018,08,22,11,41,25.50
2018,08,22,11,42,25.50
2018,08,22,11,43,25.50
2018,08,22,11,44,25.50
2018,08,22,11,45,25.50
2018,08,22,11,46,25.50
2018,08,22,11,47,25.50
2018,08,22,11,48,25.60
2018,08,22,11,49,25.60
2018,08,22,11,50,25.60
2018,08,22,11,51,25.60
2018,08,22,11,52,25.70
2018,08,22,11,53,25.70
2018,08,22,11,54,25.80
2018,08,22,11,55,25.80
2018,08,22,11,56,25.80
2018,08,22,11,57,25.90
2018,08,22,11,58,25.90
2018,08,22,11,59,25.90
2018,08,22,12,00,25.90
2018,08,22,12,01,25.90
2018,08,22,12,02,25.90
2018,08,22,12,03,25.80
2018,08,22,12,04,25.80
2018,08,22,12,05,25.90
2018,08,22,12,06,25.90
2018,08,22,12,07,25.90
2018,08,22,12,08,25.90
2018,08,22,12,09,26.00
2018,08,22,12,10,26.00
2018,08,22,12,11,26.00
2018,08,22,12,12,26.00
2018,08,22,12,13,25.90
2018,08,22,12,14,25.90
2018,08,22,12,15,25.90
2018,08,22,12,16,25.90
2018,08,22,12,17,25.90
2018,08,22,12,18,25.80
2018,08,22,12,19,25.80
2018,08,22,12,20,25.80
2018,08,22,12,21,25.80
2018,08,22,12,22,25.80
2018,08,22,12,23,25.90
2018,08,22,12,24,25.90
2018,08,22,12,25,25.90
2018,08,22,12,26,25.90
2018,08,22,12,27,25.90
2018,08,22,12,28,26.00
2018,08,22,12,29,26.10
2018,08,22,12,30,26.10
2018,08,22,12,31,26.10
2018,08,22,12,32,26.10
2018,08,22,12,33,26.20
2018,08,22,12,34,26.20
2018,08,22,12,35,26.30
2018,08,22,12,36,26.30
2018,08,22,12,37,26.40
2018,08,22,12,38,26.40
2018,08,22,12,39,26.40
2018,08,22,12,40,26.40
2018,08,22,12,41,26.30
2018,08,22,12,42,26.30
2018,08,22,12,43,26.30
2018,08,22,12,44,26.30
2018,08,22,12,45,26.30
2018,08,22,12,46,26.30
2018,08,22,12,47,26.30
2018,08,22,12,48,26.40
2018,08,22,12,49,26.40
2018,08,22,12,50,26.40
2018,08,22,12,51,26.40
2018,08,22,12,52,26.50
2018,08,22,12,53,26.50
2018,08,22,12,54,26.50
2018,08,22,12,55,26.50
2018,08,22,12,56,26.50
2018,08,22,12,57,26.50
2018,08,22,12,58,26.50
2018,08,22,12,59,26.50
2018,08,22,13,00,26.50
2018,08,22,13,01,26.40
2018,08,22,13,02,26.40
2018,08,22,13,03,26.30
2018,08,22,13,04,26.30
2018,08,22,13,05,26.30
2018,08,22,13,06,26.30
2018,08,22,13,07,26.30
2018,08,22,13,08,26.30
2018,08,22,13,09,26.30
2018,08,22,13,10,26.40
2018,08,22,13,11,26.50
2018,08,22,13,12,26.50
2018,08,22,13,13,26.60
2018,08,22,13,14,26.60
2018,08,22,13,15,26.70
2018,08,22,13,16,26.70
2018,08,22,13,17,26.70
2018,08,22,13,18,26.70
2018,08,22,13,19,26.80
2018,08,22,13,20,26.80
2018,08,22,13,21,26.80
2018,08,22,13,22,26.90
2018,08,22,13,23,26.90
2018,08,22,13,24,26.90
2018,08,22,13,25,27.00
2018,08,22,13,26,27.00
2018,08,22,13,27,27.10
2018,08,22,13,28,27.10
2018,08,22,13,29,27.20
2018,08,22,13,30,27.20
2018,08,22,13,31,27.30
2018,08,22,13,32,27.30
2018,08,22,13,33,27.30
2018,08,22,13,34,27.40
2018,08,22,13,35,27.40
2018,08,22,13,36,27.40
2018,08,22,13,37,27.40
2018,08,22,13,38,27.40
2018,08,22,13,39,27.40
2018,08,22,13,40,27.40
2018,08,22,13,41,27.50
2018,08,22,13,42,27.50
2018,08,22,13,43,27.60
2018,08,22,13,44,27.60
2018,08,22,13,45,27.60
2018,08,22,13,46,27.70
2018,08,22,13,47,27.70
2018,08,22,13,48,27.70
2018,08,22,13,49,27.70
2018,08,22,13,50,27.80
2018,08,22,13,51,27.80
2018,08,22,13,52,27.80
2018,08,22,13,53,27.90
2018,08,22,13,54,27.90
2018,08,22,13,55,28.00
2018,08,22,13,56,28.00
2018,08,22,13,57,28.00
2018,08,22,13,58,28.00
2018,08,22,13,59,28.00
2018,08,22,14,00,28.00
2018,08,22,14,01,28.00
2018,08,22,14,02,28.00
2018,08,22,14,03,28.00
2018,08,22,14,04,28.10
2018,08,22,14,05,28.10
2018,08,22,14,06,28.10
2018,08,22,14,07,28.20
2018,08,22,14,08,28.20
2018,08,22,14,09,28.20
2018,08,22,14,10,28.20
2018,08,22,14,11,28.30
2018,08,22,14,12,28.30
2018,08,22,14,13,28.30
2018,08,22,14,14,28.30
2018,08,22,14,15,28.30
2018,08,22,14,16,28.30
2018,08,22,14,17,28.30
2018,08,22,14,18,28.20
2018,08,22,14,19,28.20
2018,08,22,14,20,28.20
2018,08,22,14,21,28.20
2018,08,22,14,22,28.20
2018,08,22,14,23,28.20
2018,08,22,14,24,28.20
2018,08,22,14,25,28.10
2018,08,22,14,26,28.00
2018,08,22,14,27,28.00
2018,08,22,14,28,27.90
2018,08,22,14,29,27.90
2018,08,22,14,30,27.90
2018,08,22,14,31,27.90
2018,08,22,14,32,27.80
2018,08,22,14,33,27.70
2018,08,22,14,34,27.60
2018,08,22,14,35,27.60
2018,08,22,14,36,27.60
2018,08,22,14,37,27.60
2018,08,22,14,38,27.70
2018,08,22,14,39,27.70
2018,08,22,14,40,27.70
2018,08,22,14,41,27.70
2018,08,22,14,42,27.80
2018,08,22,14,43,27.80
2018,08,22,14,44,27.80
2018,08,22,14,45,27.90
2018,08,22,14,46,28.00
2018,08,22,14,47,28.00
2018,08,22,14,48,28.10
2018,08,22,14,49,28.10
2018,08,22,14,50,28.00
2018,08,22,14,51,28.00
2018,08,22,14,52,27.90
2018,08,22,14,53,27.80
2018,08,22,14,54,27.80
2018,08,22,14,55,27.80
2018,08,22,14,56,27.80
2018,08,22,14,57,27.80
2018,08,22,14,58,27.70
2018,08,22,14,59,27.70
2018,08,22,15,00,27.70
2018,08,22,15,01,27.80
2018,08,22,15,02,27.70
2018,08,22,15,03,27.70
2018,08,22,15,04,27.80
2018,08,22,15,05,27.80
2018,08,22,15,06,27.80
2018,08,22,15,07,27.80
2018,08,22,15,08,27.80
2018,08,22,15,09,27.70
2018,08,22,15,10,27.70
2018,08,22,15,11,27.70
2018,08,22,15,12,27.60
2018,08,22,15,13,27.60
2018,08,22,15,14,27.70
2018,08,22,15,15,27.70
2018,08,22,15,16,27.70
2018,08,22,15,17,27.70
2018,08,22,15,18,27.60
2018,08,22,15,19,27.50
2018,08,22,15,20,27.50
2018,08,22,15,21,27.50
2018,08,22,15,22,27.60
2018,08,22,15,23,27.60
2018,08,22,15,24,27.70
2018,08,22,15,25,27.70
2018,08,22,15,26,27.70
2018,08,22,15,27,27.80
2018,08,22,15,28,27.90
2018,08,22,15,29,27.90
2018,08,22,15,30,28.00
2018,08,22,15,31,28.00
2018,08,22,15,32,28.10
2018,08,22,15,33,28.10
2018,08,22,15,34,28.20
2018,08,22,15,35,28.20
2018,08,22,15,36,28.20
2018,08,22,15,37,28.30
2018,08,22,15,38,28.30
2018,08,22,15,39,28.30
2018,08,22,15,40,28.20
2018,08,22,15,41,28.20
2018,08,22,15,42,28.20
2018,08,22,15,43,28.20
2018,08,22,15,44,28.10
2018,08,22,15,45,28.10
2018,08,22,15,46,28.10
2018,08,22,15,47,28.20
2018,08,22,15,48,28.20
2018,08,22,15,49,28.20
2018,08,22,15,50,28.20
2018,08,22,15,51,28.20
2018,08,22,15,52,28.20
2018,08,22,15,53,28.20
2018,08,22,15,54,28.10
2018,08,22,15,55,28.00
2018,08,22,15,56,28.00
2018,08,22,15,57,28.00
2018,08,22,15,58,27.90
2018,08,22,15,59,27.90
2018,08,22,16,00,27.90
2018,08,22,16,01,27.90
2018,08,22,16,02,27.90
2018,08,22,16,03,27.90
2018,08,22,16,04,27.90
2018,08,22,16,05,27.90
2018,08,22,16,06,27.90
2018,08,22,16,07,27.80
2018,08,22,16,08,27.80
2018,08,22,16,09,27.70
2018,08,22,16,10,27.70
2018,08,22,16,11,27.70
2018,08,22,16,12,27.60
2018,08,22,16,13,27.50
2018,08,22,16,14,27.40
2018,08,22,16,15,27.30
2018,08,22,16,16,27.20
2018,08,22,16,17,27.20
2018,08,22,16,18,27.10
2018,08,22,16,19,27.00
2018,08,22,16,20,27.00
2018,08,22,16,21,27.00
2018,08,22,16,22,26.90
2018,08,22,16,23,26.90
2018,08,22,16,24,26.90
2018,08,22,16,25,26.90
2018,08,22,16,26,26.90
2018,08,22,16,27,27.00
2018,08,22,16,28,27.00
2018,08,22,16,29,27.10
2018,08,22,16,30,27.10
2018,08,22,16,31,27.20
2018,08,22,16,32,27.20
2018,08,22,16,33,27.20
2018,08,22,16,34,27.20
2018,08,22,16,35,27.30
2018,08,22,16,36,27.30
2018,08,22,16,37,27.30
2018,08,22,16,38,27.30
2018,08,22,16,39,27.30
2018,08,22,16,40,27.30
2018,08,22,16,41,27.40
2018,08,22,16,42,27.40
2018,08,22,16,43,27.40
2018,08,22,16,44,27.50
2018,08,22,16,45,27.50
2018,08,22,16,46,27.50
2018,08,22,16,47,27.50
2018,08,22,16,48,27.40
2018,08,22,16,49,27.50
2018,08,22,16,50,27.50
2018,08,22,16,51,27.50
2018,08,22,16,52,27.50
2018,08,22,16,53,27.50
2018,08,22,16,54,27.50
2018,08,22,16,55,27.50
2018,08,22,16,56,27.40
2018,08,22,16,57,27.40
2018,08,22,16,58,27.40
2018,08,22,16,59,27.30
2018,08,22,17,00,27.30
2018,08,22,17,01,27.30
2018,08,22,17,02,27.30
2018,08,22,17,03,27.30
2018,08,22,17,04,27.20
2018,08,22,17,05,27.20
2018,08,22,17,06,27.20
2018,08,22,17,07,27.20
2018,08,22,17,08,27.20
2018,08,22,17,09,27.20
2018,08,22,17,10,27.20
2018,08,22,17,11,27.10
2018,08,22,17,12,27.10
2018,08,22,17,13,27.10
2018,08,22,17,14,27.10
2018,08,22,17,15,27.10
2018,08,22,17,16,27.10
2018,08,22,17,17,27.10
2018,08,22,17,18,27.10
2018,08,22,17,19,27.00